STARLINK-35245

Last updated on Tue Oct 14 2025 00:02:05 GMT+0000 (Coordinated Universal Time)

1 65599U 25207H 25286.63473766 .00096458 00000+0 17512-2 0 9994 2 65599 97.6026 350.1418 0001902 78.8905 281.2559 15.49226971 5909
UTC large
Height (km)
Speed (km/s)
/
Latitude / Longitude
Inclination (degrees)
Orbital Period (minutes)
Azimuth
Elevation
Range (km)
Doppler Factor

Next 0 passes for location: London (51.5072 / 0.1276)

Sorry there are no passes over London.
STARLINK-35245